Time,TemperatureF,DewpointF,PressureIn,WindDirection,WindDirectionDegrees,WindSpeedMPH,WindSpeedGustMPH,Humidity,HourlyPrecipIn,Conditions,Clouds,dailyrainin,SoftwareType,DateUTC
2013-01-14 08:40:00,18.5,5.4,30.09,WNW,287,0.0,0.0,56,0.00,,,0.00,Wunderground v.1.15,2013-01-14 15:40:00,
2013-01-14 08:50:00,20.7,6.7,30.10,NE,44,0.0,0.0,54,0.00,,,0.00,Wunderground v.1.15,2013-01-14 15:50:00,
2013-01-14 09:00:00,22.5,6.6,30.10,NNE,32,0.0,0.0,50,0.00,,,0.00,Wunderground v.1.15,2013-01-14 16:00:00,
2013-01-14 09:10:00,23.3,7.4,30.10,NE,35,0.0,0.0,50,0.00,,,0.00,Wunderground v.1.15,2013-01-14 16:10:00,
2013-01-14 09:20:00,25.1,7.2,30.10,NNE,18,0.0,0.0,46,0.00,,,0.00,Wunderground v.1.15,2013-01-14 16:20:00,
2013-01-14 09:31:00,25.7,7.3,30.10,NE,56,1.0,1.0,45,0.00,,,0.00,Wunderground v.1.15,2013-01-14 16:31:00,
2013-01-14 09:40:00,26.4,7.4,30.11,SE,124,0.0,1.0,44,0.00,,,0.00,Wunderground v.1.15,2013-01-14 16:40:00,
2013-01-14 09:50:00,27.8,7.6,30.11,NE,43,0.0,0.0,42,0.00,,,0.00,Wunderground v.1.15,2013-01-14 16:50:00,
2013-01-14 10:00:00,27.6,6.9,30.11,NNE,21,0.0,0.0,41,0.00,,,0.00,Wunderground v.1.15,2013-01-14 17:00:00,
2013-01-14 10:10:00,27.2,6.6,30.11,NW,325,0.0,0.0,41,0.00,,,0.00,Wunderground v.1.15,2013-01-14 17:10:00,
2013-01-14 10:20:00,28.5,7.8,30.11,SSW,194,0.0,0.0,41,0.00,,,0.00,Wunderground v.1.15,2013-01-14 17:20:00,
2013-01-14 10:31:00,29.3,7.4,30.11,NNE,23,0.0,0.0,39,0.00,,,0.00,Wunderground v.1.15,2013-01-14 17:31:00,
2013-01-14 10:40:00,29.7,7.2,30.11,NNE,25,0.0,1.0,38,0.00,,,0.00,Wunderground v.1.15,2013-01-14 17:40:00,
2013-01-14 10:50:00,30.3,7.7,30.11,East,83,1.0,1.0,38,0.00,,,0.00,Wunderground v.1.15,2013-01-14 17:50:00,
2013-01-14 11:00:00,30.4,7.8,30.11,NNE,27,2.0,2.0,38,0.00,,,0.00,Wunderground v.1.15,2013-01-14 18:00:00,
2013-01-14 11:10:00,30.5,7.3,30.10,ENE,75,1.0,2.0,37,0.00,,,0.00,Wunderground v.1.15,2013-01-14 18:10:00,
2013-01-14 11:20:00,31.2,7.9,30.10,NNW,335,1.0,4.0,37,0.00,,,0.00,Wunderground v.1.15,2013-01-14 18:20:00,
2013-01-14 11:30:00,31.3,6.8,30.09,East,94,2.0,2.0,35,0.00,,,0.00,Wunderground v.1.15,2013-01-14 18:30:00,
2013-01-14 11:40:00,32.0,6.8,30.09,WNW,297,1.0,1.0,34,0.00,,,0.00,Wunderground v.1.15,2013-01-14 18:40:00,
2013-01-14 11:50:00,32.3,7.0,30.09,North,6,3.0,3.0,34,0.00,,,0.00,Wunderground v.1.15,2013-01-14 18:50:00,
2013-01-14 12:00:00,32.0,6.8,30.08,North,9,1.0,1.0,34,0.00,,,0.00,Wunderground v.1.15,2013-01-14 19:00:00,
2013-01-14 12:10:00,33.7,8.3,30.08,NE,53,1.0,1.0,34,0.00,,,0.00,Wunderground v.1.15,2013-01-14 19:10:00,
2013-01-14 12:20:00,33.1,7.7,30.07,ENE,76,1.0,1.0,34,0.00,,,0.00,Wunderground v.1.15,2013-01-14 19:20:00,
2013-01-14 13:20:00,35.0,5.1,30.05,West,278,1.0,1.0,28,0.00,,,0.00,Wunderground v.1.15,2013-01-14 20:20:00,
2013-01-14 13:30:00,35.8,5.8,30.05,NNE,27,1.0,1.0,28,0.00,,,0.00,Wunderground v.1.15,2013-01-14 20:30:00,
2013-01-14 13:40:00,36.0,6.0,30.05,SSE,152,2.0,2.0,28,0.00,,,0.00,Wunderground v.1.15,2013-01-14 20:40:00,
2013-01-14 13:50:00,36.1,5.3,30.05,East,89,2.0,2.0,27,0.00,,,0.00,Wunderground v.1.15,2013-01-14 20:50:00,
2013-01-14 14:00:00,36.0,6.0,30.05,SW,233,1.0,1.0,28,0.00,,,0.00,Wunderground v.1.15,2013-01-14 21:00:00,
2013-01-14 14:10:00,36.1,5.3,30.05,NNW,335,2.0,2.0,27,0.00,,,0.00,Wunderground v.1.15,2013-01-14 21:10:00,
2013-01-14 14:20:00,34.5,5.5,30.05,NW,307,4.0,4.0,29,0.00,,,0.00,Wunderground v.1.15,2013-01-14 21:20:00,
2013-01-14 14:30:00,35.0,5.9,30.06,NW,326,2.0,2.0,29,0.00,,,0.00,Wunderground v.1.15,2013-01-14 21:30:00,
2013-01-14 14:40:00,36.4,6.3,30.06,NNE,16,2.0,3.0,28,0.00,,,0.00,Wunderground v.1.15,2013-01-14 21:40:00,
2013-01-14 14:50:00,36.8,5.9,30.06,SW,221,2.0,2.0,27,0.00,,,0.00,Wunderground v.1.15,2013-01-14 21:50:00,
2013-01-14 15:00:00,38.3,7.2,30.07,East,81,1.0,1.0,27,0.00,,,0.00,Wunderground v.1.15,2013-01-14 22:00:00,
2013-01-14 15:10:00,37.8,6.8,30.07,NE,38,3.0,3.0,27,0.00,,,0.00,Wunderground v.1.15,2013-01-14 22:10:00,
2013-01-14 15:20:00,37.9,6.8,30.07,NE,35,2.0,2.0,27,0.00,,,0.00,Wunderground v.1.15,2013-01-14 22:20:00,
2013-01-14 15:30:00,37.6,5.7,30.08,East,80,3.0,3.0,26,0.00,,,0.00,Wunderground v.1.15,2013-01-14 22:30:00,
2013-01-14 15:40:00,37.1,6.1,30.08,NE,35,1.0,2.0,27,0.00,,,0.00,Wunderground v.1.15,2013-01-14 22:40:00,
2013-01-14 15:50:00,36.5,6.4,30.08,SE,133,1.0,1.0,28,0.00,,,0.00,Wunderground v.1.15,2013-01-14 22:50:00,
2013-01-14 16:00:00,37.7,6.7,30.09,NNE,24,1.0,3.0,27,0.00,,,0.00,Wunderground v.1.15,2013-01-14 23:00:00,
2013-01-14 16:10:00,37.3,6.3,30.09,NE,51,1.0,1.0,27,0.00,,,0.00,Wunderground v.1.15,2013-01-14 23:10:00,
2013-01-14 16:20:00,37.2,6.2,30.09,NNE,20,1.0,6.0,27,0.00,,,0.00,Wunderground v.1.15,2013-01-14 23:20:00,
2013-01-14 16:30:00,35.7,5.7,30.10,North,1,2.0,3.0,28,0.00,,,0.00,Wunderground v.1.15,2013-01-14 23:30:00,
2013-01-14 16:40:00,34.8,5.7,30.10,NNW,328,2.0,2.0,29,0.00,,,0.00,Wunderground v.1.15,2013-01-14 23:40:00,
2013-01-14 16:50:00,34.2,5.9,30.11,NNW,345,1.0,1.0,30,0.00,,,0.00,Wunderground v.1.15,2013-01-14 23:50:00,
2013-01-14 17:00:00,33.7,5.5,30.11,NE,56,0.0,0.0,30,0.00,,,0.00,Wunderground v.1.15,2013-01-15 00:00:00,
2013-01-14 17:10:00,33.4,6.0,30.12,ENE,69,0.0,0.0,31,0.00,,,0.00,Wunderground v.1.15,2013-01-15 00:10:00,
2013-01-14 17:20:00,33.3,5.9,30.12,East,94,0.0,0.0,31,0.00,,,0.00,Wunderground v.1.15,2013-01-15 00:20:00,
2013-01-14 17:30:00,33.1,6.4,30.12,NE,52,0.0,0.0,32,0.00,,,0.00,Wunderground v.1.15,2013-01-15 00:30:00,
2013-01-14 17:40:00,32.7,6.0,30.13,East,95,1.0,1.0,32,0.00,,,0.00,Wunderground v.1.15,2013-01-15 00:40:00,
2013-01-14 17:50:00,32.3,5.0,30.13,ESE,102,1.0,3.0,31,0.00,,,0.00,Wunderground v.1.15,2013-01-15 00:50:00,
2013-01-14 18:00:00,31.6,3.7,30.14,East,79,1.0,1.0,30,0.00,,,0.00,Wunderground v.1.15,2013-01-15 01:00:00,
2013-01-14 18:10:00,30.8,3.0,30.15,East,98,1.0,1.0,30,0.00,,,0.00,Wunderground v.1.15,2013-01-15 01:10:00,
2013-01-14 18:20:00,30.2,3.1,30.15,NE,44,1.0,1.0,31,0.00,,,0.00,Wunderground v.1.15,2013-01-15 01:20:00,
2013-01-14 18:30:00,29.7,2.7,30.16,South,182,0.0,2.0,31,0.00,,,0.00,Wunderground v.1.15,2013-01-15 01:30:00,
2013-01-14 18:40:00,29.5,2.5,30.17,SW,217,2.0,2.0,31,0.00,,,0.00,Wunderground v.1.15,2013-01-15 01:40:00,
2013-01-14 18:50:00,29.5,2.5,30.18,SW,225,3.0,3.0,31,0.00,,,0.00,Wunderground v.1.15,2013-01-15 01:50:00,
2013-01-14 19:00:00,29.3,2.4,30.18,South,174,3.0,3.0,31,0.00,,,0.00,Wunderground v.1.15,2013-01-15 02:00:00,
2013-01-14 19:10:00,28.9,1.3,30.18,SSE,158,2.0,4.0,30,0.00,,,0.00,Wunderground v.1.15,2013-01-15 02:10:00,
2013-01-14 19:20:00,28.5,1.6,30.19,SSE,155,2.0,2.0,31,0.00,,,0.00,Wunderground v.1.15,2013-01-15 02:20:00,
2013-01-14 19:31:00,28.0,1.2,30.19,South,177,1.0,1.0,31,0.00,,,0.00,Wunderground v.1.15,2013-01-15 02:31:00,
2013-01-14 19:40:00,27.5,0.8,30.19,SSE,163,0.0,0.0,31,0.00,,,0.00,Wunderground v.1.15,2013-01-15 02:40:00,
2013-01-14 19:50:00,26.8,0.8,30.20,SW,224,1.0,1.0,32,0.00,,,0.00,Wunderground v.1.15,2013-01-15 02:50:00,
2013-01-14 20:00:00,26.2,0.3,30.20,SW,234,1.0,1.0,32,0.00,,,0.00,Wunderground v.1.15,2013-01-15 03:00:00,
2013-01-14 20:10:00,25.7,0.5,30.20,SW,223,1.0,1.0,33,0.00,,,0.00,Wunderground v.1.15,2013-01-15 03:10:00,
2013-01-14 20:20:00,24.7,0.3,30.20,West,276,0.0,0.0,34,0.00,,,0.00,Wunderground v.1.15,2013-01-15 03:20:00,
2013-01-14 20:30:00,23.9,0.2,30.21,WNW,285,0.0,0.0,35,0.00,,,0.00,Wunderground v.1.15,2013-01-15 03:30:00,
2013-01-14 20:40:00,22.8,0.4,30.22,West,276,1.0,1.0,37,0.00,,,0.00,Wunderground v.1.15,2013-01-15 03:40:00,
2013-01-14 20:50:00,22.0,0.2,30.22,WNW,300,1.0,1.0,38,0.00,,,0.00,Wunderground v.1.15,2013-01-15 03:50:00,
2013-01-14 21:00:00,21.3,0.1,30.22,NNW,342,1.0,1.0,39,0.00,,,0.00,Wunderground v.1.15,2013-01-15 04:00:00,
2013-01-14 21:10:00,21.5,-0.8,30.23,NW,315,0.0,0.0,37,0.00,,,0.00,Wunderground v.1.15,2013-01-15 04:10:00,
2013-01-14 21:20:00,21.7,-1.2,30.23,NW,314,0.0,0.0,36,0.00,,,0.00,Wunderground v.1.15,2013-01-15 04:20:00,
2013-01-14 21:30:00,20.6,-1.0,30.23,West,276,0.0,0.0,38,0.00,,,0.00,Wunderground v.1.15,2013-01-15 04:30:00,
2013-01-14 21:40:00,19.0,-0.9,30.23,West,281,0.0,1.0,41,0.00,,,0.00,Wunderground v.1.15,2013-01-15 04:40:00,
2013-01-14 21:50:00,18.2,-1.1,30.23,WNW,301,0.0,1.0,42,0.00,,,0.00,Wunderground v.1.15,2013-01-15 04:50:00,
2013-01-14 22:01:00,18.0,-0.8,30.23,NW,315,0.0,0.0,43,0.00,,,0.00,Wunderground v.1.15,2013-01-15 05:01:00,
2013-01-14 22:10:00,17.9,-1.4,30.23,West,276,0.0,0.0,42,0.00,,,0.00,Wunderground v.1.15,2013-01-15 05:10:00,
2013-01-14 22:20:00,17.9,-1.4,30.23,WNW,302,0.0,0.0,42,0.00,,,0.00,Wunderground v.1.15,2013-01-15 05:20:00,
2013-01-14 22:30:00,16.9,-1.8,30.23,WNW,285,0.0,0.0,43,0.00,,,0.00,Wunderground v.1.15,2013-01-15 05:30:00,
2013-01-14 22:40:00,16.7,-2.0,30.23,WNW,286,0.0,0.0,43,0.00,,,0.00,Wunderground v.1.15,2013-01-15 05:40:00,
2013-01-14 22:50:00,16.0,-1.6,30.24,West,280,0.0,0.0,45,0.00,,,0.00,Wunderground v.1.15,2013-01-15 05:50:00,
2013-01-14 23:00:00,16.3,-2.3,30.24,West,279,0.0,0.0,43,0.00,,,0.00,Wunderground v.1.15,2013-01-15 06:00:00,
2013-01-14 23:10:00,15.5,-2.6,30.24,West,281,1.0,1.0,44,0.00,,,0.00,Wunderground v.1.15,2013-01-15 06:10:00,